Starlink 4738

operational
NORAD ID: 53819 Int'l Des: 2022-114 Owner: SPXS Country: US Constellation: starlink
LEOCIRCULAR

Über Starlink 4738

Beschreibung wird geladen...

Live-Position

3D-Globus wird geladen...

Nächste Überflüge

Höhenverlauf

Altitude vs Time

uPlot chart will show altitude changes over time

Zweizeiliger Elementsatz

1 53819U 22114B 26036.16825729 -.00000306 00000-0 -11146-5 0 9992
2 53819 53.2175 89.9849 0001371 95.9290 264.1859 15.08837029187929
Epoch: 5. Feb. 2026 • Age: 31 hours

Aktueller Status

Höhe 558.4 km
Geschwindigkeit 7.58 km/s
Subsatellitenpunkt -51.18°S, 67.5°E
Startdatum 19. Sept. 2022
Alter 3.3 years
Typ internet

Technische Details

Klassifizierung Payload
Masse 305.00 kg
Trockenmasse 290.00 kg
Gesamtmasse 305.00 kg
Länge 0.20 m
Durchmesser 2.80 m
Spannweite 9.00 m
Form Box + pan
Hersteller SPXS
Bus-Typ Starlink
Phasenstatus In Orbit
Besitzer/Staat SPXS/US

Große Konstellationen

Loading constellations...